| time (UTC) | temp C | wind direction | speed KPH | gust KPH | rain 1hr cm | rain 24hr cm | rain mn cm | humidity % | barometer mb |
| 20260508100016 | 1 | 221 | 0.0 | 3.2 | 0.00 | 0.00 | 0.00 | 88 | 1004.6 |
| 20260508094513 | 1 | 221 | 0.0 | 4.8 | 0.00 | 0.00 | 0.00 | 88 | 1004.4 |
| 20260508093016 | 1 | 221 | 1.6 | 3.2 | 0.00 | 0.00 | 0.00 | 88 | 1004.3 |
| 20260508091511 | 1 | 221 | 1.6 | 4.8 | 0.00 | 0.00 | 0.00 | 88 | 1004.3 |
| 20260508090021 | 1 | 219 | 3.2 | 4.8 | 0.00 | 0.00 | 0.00 | 86 | 1004.2 |
| 20260508084509 | 1 | 240 | 0.0 | 6.4 | 0.00 | 0.03 | 0.00 | 87 | 1004.0 |
| 20260508083007 | 2 | 226 | 0.0 | 4.8 | 0.00 | 0.03 | 0.00 | 85 | 1004.0 |
| 20260508081509 | 2 | 234 | 1.6 | 4.8 | 0.00 | 0.03 | 0.00 | 87 | 1003.8 |
| 20260508080007 | 2 | 221 | 1.6 | 8.0 | 0.00 | 0.03 | 0.00 | 86 | 1003.8 |
| 20260508074505 | 1 | 243 | 1.6 | 3.2 | 0.00 | 0.38 | 0.00 | 87 | 1003.9 |
| 20260508073004 | 1 | 243 | 1.6 | 4.8 | 0.00 | 0.38 | 0.00 | 86 | 1003.9 |
| 20260508071506 | 2 | 261 | 1.6 | 3.2 | 0.00 | 0.38 | 0.00 | 84 | 1003.9 |
| 20260508070058 | 3 | 261 | 1.6 | 4.8 | 0.00 | 0.38 | 0.00 | 80 | 1003.9 |
| 20260508064556 | 3 | 263 | 0.0 | 1.6 | 0.00 | 0.48 | 0.00 | 80 | 1003.8 |
| 20260508063054 | 3 | 268 | 1.6 | 3.2 | 0.00 | 0.48 | 0.00 | 79 | 1004.0 |
| 20260508061552 | 4 | 283 | 0.0 | 1.6 | 0.00 | 0.48 | 0.00 | 79 | 1004.0 |
| 20260508060053 | 3 | 283 | 0.0 | 3.2 | 0.00 | 0.48 | 0.00 | 80 | 1004.0 |
| 20260508054548 | 3 | 246 | 0.0 | 3.2 | 0.00 | 0.56 | 0.00 | 78 | 1004.2 |
| 20260508053047 | 5 | 246 | 1.6 | 3.2 | 0.00 | 0.56 | 0.00 | 74 | 1004.3 |
| 20260508051545 | 5 | 246 | 1.6 | 3.2 | 0.00 | 0.56 | 0.00 | 75 | 1004.3 |
| 20260508050042 | 5 | 246 | 1.6 | 3.2 | 0.00 | 0.56 | 0.00 | 72 | 1004.6 |
| 20260508044536 | 6 | 246 | 0.0 | 4.8 | 0.00 | 0.58 | 0.00 | 68 | 1004.7 |
| 20260508043031 | 7 | 255 | 1.6 | 4.8 | 0.00 | 0.58 | 0.00 | 63 | 1004.7 |
| 20260508041528 | 7 | 270 | 3.2 | 9.7 | 0.00 | 0.58 | 0.00 | 60 | 1004.7 |
| 20260508040024 | 8 | 252 | 4.8 | 11.3 | 0.00 | 0.58 | 0.00 | 58 | 1004.7 |
| 20260508034523 | 8 | 263 | 3.2 | 11.3 | 0.00 | 0.69 | 0.58 | 56 | 1004.7 |
| 20260508033022 | 9 | 265 | 1.6 | 16.1 | 0.00 | 0.69 | 0.58 | 54 | 1004.7 |
| 20260508031521 | 9 | 333 | 4.8 | 14.5 | 0.00 | 0.69 | 0.58 | 52 | 1004.5 |
| 20260508030021 | 10 | 256 | 3.2 | 6.4 | 0.00 | 0.69 | 0.58 | 53 | 1004.6 |
| 20260508024520 | 10 | 343 | 3.2 | 6.4 | 0.00 | 0.76 | 0.58 | 53 | 1004.6 |
| 20260508023019 | 10 | 292 | 3.2 | 16.1 | 0.00 | 0.76 | 0.58 | 51 | 1004.7 |
| 20260508021526 | 10 | 273 | 4.8 | 17.7 | 0.00 | 0.76 | 0.58 | 50 | 1004.8 |
| 20260508020017 | 11 | 214 | 3.2 | 12.9 | 0.00 | 0.76 | 0.58 | 55 | 1004.7 |
| 20260508014517 | 11 | 329 | 6.4 | 16.1 | 0.00 | 0.76 | 0.58 | 59 | 1004.6 |
| 20260508013029 | 11 | 281 | 3.2 | 16.1 | 0.00 | 0.76 | 0.58 | 67 | 1004.4 |
| 20260508011516 | 11 | 269 | 4.8 | 19.3 | 0.00 | 0.76 | 0.58 | 68 | 1004.5 |
| 20260508010016 | 12 | 281 | 1.6 | 9.7 | 0.00 | 0.76 | 0.58 | 70 | 1004.3 |
| 20260508004529 | 12 | 286 | 1.6 | 9.7 | 0.00 | 0.76 | 0.58 | 67 | 1004.2 |
| 20260508003016 | 12 | 304 | 3.2 | 11.3 | 0.00 | 0.76 | 0.58 | 64 | 1003.9 |
| 20260508001518 | 12 | 278 | 3.2 | 6.4 | 0.00 | 0.76 | 0.58 | 63 | 1003.8 |
| 20260508000014 | 12 | 322 | 4.8 | 12.9 | 0.00 | 0.76 | 0.58 | 63 | 1003.4 |
| 20260507234512 | 12 | 335 | 3.2 | 6.4 | 0.00 | 0.76 | 0.58 | 63 | 1003.1 |
| 20260507233022 | 13 | 12 | 1.6 | 9.7 | 0.00 | 0.76 | 0.58 | 62 | 1002.7 |
| 20260507231511 | 13 | 312 | 3.2 | 12.9 | 0.00 | 0.76 | 0.58 | 60 | 1002.4 |
| 20260507230010 | 13 | 311 | 4.8 | 11.3 | 0.00 | 0.76 | 0.58 | 59 | 1002.3 |
| 20260507224511 | 13 | 282 | 4.8 | 16.1 | 0.00 | 0.76 | 0.58 | 56 | 1002.2 |
| 20260507223010 | 15 | 327 | 9.7 | 24.1 | 0.00 | 0.76 | 0.58 | 53 | 1002.0 |
| 20260507221516 | 16 | 260 | 4.8 | 11.3 | 0.00 | 0.76 | 0.58 | 44 | 1001.8 |
| 20260507220011 | 16 | 232 | 8.0 | 19.3 | 0.00 | 0.76 | 0.58 | 43 | 1001.6 |
| 20260507214510 | 16 | 226 | 6.4 | 16.1 | 0.00 | 0.76 | 0.58 | 44 | 1001.6 |
| 20260507213009 | 17 | 234 | 8.0 | 19.3 | 0.00 | 0.76 | 0.58 | 42 | 1001.6 |
| 20260507211629 | 16 | 252 | 4.8 | 9.7 | 0.00 | 0.76 | 0.58 | 44 | 1001.4 |
| 20260507210018 | 16 | 236 | 8.0 | 17.7 | 0.00 | 0.76 | 0.58 | 41 | 1001.4 |
| 20260507204506 | 16 | 259 | 6.4 | 17.7 | 0.00 | 0.76 | 0.58 | 42 | 1001.3 |
| 20260507203008 | 16 | 274 | 8.0 | 17.7 | 0.00 | 0.76 | 0.58 | 41 | 1001.3 |
| 20260507201508 | 16 | 275 | 3.2 | 14.5 | 0.00 | 0.76 | 0.58 | 42 | 1001.2 |
| 20260507200003 | 17 | 252 | 4.8 | 16.1 | 0.00 | 0.76 | 0.58 | 39 | 1001.1 |
| 20260507194503 | 17 | 321 | 11.3 | 29.0 | 0.00 | 0.76 | 0.58 | 38 | 1001.2 |
| 20260507193100 | 17 | 237 | 9.7 | 25.7 | 0.00 | 0.76 | 0.58 | 38 | 1001.4 |
| 20260507191557 | 17 | 290 | 3.2 | 9.7 | 0.00 | 0.76 | 0.58 | 47 | 1001.4 |
| 20260507190053 | 16 | 325 | 4.8 | 8.0 | 0.00 | 0.76 | 0.58 | 48 | 1001.5 |
| 20260507184603 | 16 | 255 | 3.2 | 16.1 | 0.00 | 0.76 | 0.58 | 48 | 1001.6 |
| 20260507183049 | 16 | 313 | 3.2 | 16.1 | 0.00 | 0.76 | 0.58 | 54 | 1001.9 |
| 20260507181548 | 15 | 350 | 3.2 | 11.3 | 0.00 | 0.76 | 0.58 | 53 | 1002.1 |
| 20260507180051 | 16 | 296 | 3.2 | 16.1 | 0.00 | 0.76 | 0.58 | 49 | 1002.0 |
| 20260507174550 | 16 | 279 | 3.2 | 16.1 | 0.00 | 0.76 | 0.58 | 49 | 1002.0 |
| 20260507173044 | 16 | 242 | 4.8 | 14.5 | 0.00 | 0.76 | 0.58 | 53 | 1002.1 |
| 20260507171549 | 15 | 329 | 4.8 | 17.7 | 0.00 | 0.76 | 0.58 | 50 | 1002.2 |
| 20260507170041 | 15 | 320 | 9.7 | 17.7 | 0.00 | 0.76 | 0.58 | 52 | 1002.4 |
| 20260507164539 | 14 | 237 | 8.0 | 17.7 | 0.00 | 0.76 | 0.58 | 54 | 1002.4 |
| 20260507163037 | 15 | 101 | 4.8 | 14.5 | 0.00 | 0.76 | 0.58 | 58 | 1002.6 |
| 20260507161539 | 14 | 355 | 4.8 | 16.1 | 0.00 | 0.76 | 0.58 | 57 | 1002.9 |
| 20260507160034 | 13 | 234 | 6.4 | 19.3 | 0.00 | 0.76 | 0.58 | 61 | 1003.1 |
| 20260507154536 | 13 | 234 | 3.2 | 22.5 | 0.00 | 0.76 | 0.58 | 56 | 1003.2 |
| 20260507153039 | 13 | 259 | 9.7 | 20.9 | 0.00 | 0.76 | 0.58 | 61 | 1003.3 |
| 20260507151526 | 13 | 5 | 6.4 | 14.5 | 0.00 | 0.76 | 0.58 | 67 | 1003.4 |
| 20260507150026 | 13 | 275 | 3.2 | 12.9 | 0.00 | 0.76 | 0.58 | 70 | 1003.8 |
| 20260507144521 | 12 | 267 | 4.8 | 14.5 | 0.00 | 0.76 | 0.58 | 73 | 1004.0 |
| 20260507143025 | 12 | 263 | 9.7 | 19.3 | 0.00 | 0.76 | 0.58 | 73 | 1003.9 |
| 20260507141518 | 12 | 282 | 6.4 | 16.1 | 0.00 | 0.76 | 0.58 | 75 | 1004.3 |
| 20260507140015 | 11 | 326 | 3.2 | 14.5 | 0.00 | 0.76 | 0.58 | 80 | 1004.7 |
| 20260507134515 | 10 | 276 | 3.2 | 14.5 | 0.00 | 0.76 | 0.58 | 81 | 1004.2 |
| 20260507133013 | 10 | 255 | 4.8 | 16.1 | 0.00 | 0.76 | 0.58 | 83 | 1004.3 |
| 20260507131518 | 10 | 290 | 4.8 | 16.1 | 0.00 | 0.76 | 0.58 | 85 | 1004.2 |
| 20260507130021 | 10 | 270 | 3.2 | 12.9 | 0.00 | 0.76 | 0.58 | 87 | 1004.1 |
| 20260507124511 | 9 | 232 | 0.0 | 8.0 | 0.00 | 0.79 | 0.58 | 90 | 1003.9 |
| 20260507123009 | 9 | 288 | 3.2 | 12.9 | 0.00 | 0.79 | 0.58 | 90 | 1004.7 |
| 20260507121507 | 8 | 293 | 1.6 | 12.9 | 0.00 | 0.79 | 0.58 | 91 | 1005.1 |
| 20260507120006 | 8 | 268 | 0.0 | 6.4 | 0.00 | 0.79 | 0.58 | 92 | 1004.8 |
| 20260507114504 | 8 | 318 | 4.8 | 16.1 | 0.00 | 0.79 | 0.58 | 92 | 1004.6 |
| 20260507113000 | 8 | 281 | 1.6 | 8.0 | 0.00 | 0.79 | 0.58 | 95 | 1004.4 |
| 20260507111559 | 8 | 263 | 1.6 | 6.4 | 0.00 | 0.79 | 0.58 | 95 | 1003.9 |
| 20260507110057 | 9 | 350 | 3.2 | 9.7 | 0.00 | 0.79 | 0.58 | 95 | 1003.9 |
| 20260507104556 | 9 | 289 | 3.2 | 8.0 | 0.00 | 0.79 | 0.58 | 95 | 1003.9 |
| 20260507103056 | 9 | 294 | 1.6 | 6.4 | 0.00 | 0.79 | 0.58 | 95 | 1003.9 |
| 20260507101557 | 9 | 261 | 3.2 | 6.4 | 0.00 | 0.79 | 0.58 | 95 | 1003.7 |